FW2498 Weather Reports


Display with metric or nautical units.
time (UTC)temp
F
wind
direction
speed
MPH
gust
MPH
rain 1hr
in
rain 24hr
in
rain mn
in
humidity
%
barometer
mb
20260901014557 72 264 9.0 14.0 0.00 0.00 0.00 40 1012.5
20260901013049 73 270 13.0 19.0 0.00 0.00 0.00 38 1012.3
20260901011547 74 269 13.0 20.0 0.00 0.00 0.00 37 1012.1
20260901010047 75 268 15.0 20.0 0.00 0.00 0.00 36 1012.1
20260901004548 76 273 15.0 22.0 0.00 0.00 0.00 36 1012.0
20260901003044 76 258 21.0 26.0 0.00 0.00 0.00 35 1011.9
20260901001542 77 304 14.0 26.0 0.00 0.00 0.00 35 1011.9
20260901000045 76 283 22.0 28.0 0.00 0.00 0.00 35 1011.8
20260831234544 77 294 22.0 32.0 0.00 0.00 0.00 34 1011.8
20260831233038 77 267 22.0 31.0 0.00 0.00 0.00 34 1011.7
20260831231537 77 268 22.0 35.0 0.00 0.00 0.00 34 1011.8
20260831230035 77 268 23.0 29.0 0.00 0.00 0.00 34 1011.7
20260831224534 77 282 22.0 31.0 0.00 0.00 0.00 35 1011.6
20260831223034 77 285 23.0 39.0 0.00 0.00 0.00 36 1011.5
20260831221529 77 260 26.0 36.0 0.00 0.00 0.00 37 1011.5
20260831220029 77 291 25.0 35.0 0.00 0.00 0.00 36 1011.2
20260831214528 77 250 28.0 40.0 0.00 0.00 0.00 36 1011.5
20260831213025 77 269 24.0 37.0 0.00 0.00 0.00 36 1011.2
20260831211524 77 260 28.0 37.0 0.00 0.00 0.00 36 1011.4
20260831210024 76 262 28.0 37.0 0.00 0.00 0.00 36 1011.1
20260831204521 77 268 28.0 37.0 0.00 0.00 0.00 37 1011.1
20260831203018 76 245 27.0 37.0 0.00 0.00 0.00 38 1011.0
20260831201517 76 283 29.0 39.0 0.00 0.00 0.00 37 1011.0
20260831200028 76 274 23.0 40.0 0.00 0.00 0.00 40 1011.0
20260831194511 75 266 33.0 40.0 0.00 0.00 0.00 40 1011.0
20260831193007 75 259 28.0 41.0 0.00 0.00 0.00 40 1010.9
20260831191505 74 250 29.0 42.0 0.00 0.00 0.00 41 1010.7
20260831190003 74 263 30.0 40.0 0.00 0.00 0.00 41 1010.7
20260831184606 73 250 33.0 45.0 0.00 0.00 0.00 42 1010.9
20260831183057 73 281 28.0 41.0 0.00 0.00 0.00 42 1010.9
20260831181558 73 266 33.0 47.0 0.00 0.00 0.00 42 1010.8
20260831180052 73 256 31.0 43.0 0.00 0.00 0.00 43 1010.6
20260831174548 72 264 34.0 41.0 0.00 0.00 0.00 44 1010.5
20260831173046 72 257 35.0 43.0 0.00 0.00 0.00 45 1010.6
20260831171540 70 256 37.0 47.0 0.00 0.00 0.00 47 1010.4
20260831170037 70 254 38.0 45.0 0.00 0.00 0.00 47 1010.3
20260831164553 70 250 36.0 48.0 0.00 0.00 0.00 48 1010.2
20260831163033 69 260 35.0 48.0 0.00 0.00 0.00 49 1010.0
20260831161528 68 245 34.0 48.0 0.00 0.00 0.00 50 1010.0
20260831160026 68 230 40.0 51.0 0.00 0.00 0.00 49 1009.8
20260831154524 67 250 40.0 49.0 0.00 0.00 0.00 48 1009.9
20260831153022 67 235 36.0 46.0 0.00 0.00 0.00 47 1009.8
20260831151518 64 214 32.0 39.0 0.00 0.00 0.00 49 1009.8
20260831150016 63 228 28.0 38.0 0.00 0.00 0.00 50 1009.7
20260831144516 64 222 33.0 44.0 0.00 0.00 0.00 49 1009.4
20260831143018 62 225 37.0 45.0 0.00 0.00 0.00 51 1009.3
20260831141505 61 229 31.0 40.0 0.00 0.00 0.00 52 1009.2
20260831140003 60 223 27.0 36.0 0.00 0.00 0.00 54 1009.2
20260831134559 59 229 28.0 37.0 0.00 0.00 0.00 56 1009.1
20260831133054 57 218 25.0 31.0 0.00 0.00 0.00 58 1009.3
20260831131554 56 226 23.0 30.0 0.00 0.00 0.00 60 1009.1
20260831130049 56 214 22.0 29.0 0.00 0.00 0.00 61 1009.0
20260831124546 55 226 21.0 25.0 0.00 0.00 0.00 62 1009.0
20260831123042 56 233 21.0 28.0 0.00 0.00 0.00 61 1009.1
20260831121539 55 218 21.0 27.0 0.00 0.00 0.00 62 1009.0
20260831120040 55 221 20.0 24.0 0.00 0.00 0.00 63 1009.0
20260831114538 55 212 19.0 25.0 0.00 0.00 0.00 63 1009.0
20260831113034 53 218 19.0 22.0 0.00 0.00 0.00 66 1008.9
20260831111542 53 218 18.0 22.0 0.00 0.00 0.00 67 1008.8
20260831110035 53 216 15.0 19.0 0.00 0.00 0.00 67 1008.8
20260831104547 54 233 12.0 18.0 0.00 0.00 0.00 66 1008.8
20260831103034 54 225 17.0 22.0 0.00 0.00 0.00 67 1008.7
20260831101533 52 226 19.0 23.0 0.00 0.00 0.00 72 1008.7
20260831100026 51 227 18.0 21.0 0.00 0.00 0.00 79 1008.6
20260831094526 49 219 11.0 16.0 0.00 0.00 0.00 81 1008.8
20260831093035 50 200 13.0 17.0 0.00 0.00 0.00 81 1008.7
20260831091518 50 211 9.0 11.0 0.00 0.00 0.00 80 1008.8
20260831090016 50 228 8.0 12.0 0.00 0.00 0.00 78 1008.8
20260831084516 51 235 11.0 13.0 0.00 0.00 0.00 79 1008.7
20260831083013 50 218 8.0 10.0 0.00 0.00 0.00 79 1008.8
20260831081512 51 225 8.0 10.0 0.00 0.00 0.00 79 1008.7
20260831080009 51 233 9.0 12.0 0.00 0.00 0.00 80 1008.8
20260831074508 51 245 9.0 11.0 0.00 0.00 0.00 81 1008.8
20260831073005 51 240 9.0 12.0 0.00 0.00 0.00 81 1008.8
20260831071507 52 240 10.0 14.0 0.00 0.00 0.00 81 1008.9
20260831070104 52 228 11.0 15.0 0.00 0.00 0.00 81 1009.0
20260831064557 53 233 11.0 13.0 0.00 0.00 0.00 80 1008.9
20260831063052 54 236 10.0 13.0 0.00 0.00 0.00 78 1008.9
20260831061550 54 240 11.0 12.0 0.00 0.00 0.00 78 1008.8
20260831060048 54 225 9.0 12.0 0.00 0.00 0.00 77 1008.8
20260831054545 54 240 10.0 12.0 0.00 0.00 0.00 77 1008.8
20260831053044 54 245 9.0 11.0 0.00 0.00 0.00 77 1009.1
20260831051543 54 228 10.0 12.0 0.00 0.00 0.00 77 1009.2
20260831050042 54 240 9.0 11.0 0.00 0.00 0.00 77 1009.0
20260831044539 54 240 8.0 10.0 0.00 0.00 0.00 76 1009.1
20260831043035 55 229 7.0 9.0 0.00 0.00 0.00 76 1009.1
20260831041533 55 236 5.0 8.0 0.00 0.00 0.00 76 1009.1
20260831040032 56 240 6.0 9.0 0.00 0.00 0.00 75 1009.0
20260831034527 57 240 6.0 9.0 0.00 0.00 0.00 74 1008.8
20260831033032 57 235 7.0 10.0 0.00 0.00 0.00 75 1008.9
20260831031522 57 250 7.0 12.0 0.00 0.00 0.00 75 1009.0
20260831030025 57 255 9.0 11.0 0.00 0.00 0.00 77 1009.1
20260831024520 57 245 7.0 9.0 0.00 0.00 0.00 76 1009.0
20260831023014 58 245 8.0 10.0 0.00 0.00 0.00 75 1008.8
20260831021512 59 256 5.0 7.0 0.00 0.00 0.00 73 1008.4
20260831020009 61 256 4.0 6.0 0.00 0.00 0.00 70 1008.2